Regional Weather Roundup
Issued by NWS New Orleans/Baton Rouge, LA

Home | Current Version | Previous Version | Graphics & Text | Print | Product List | Glossary On
Versions: 1 2 3 4 5 6 7 8 9 10 11 12 13 14 15 16 17 18 19 20 21 22 23 24 25 26 27 28 29 30 31 32 33 34 35 36 37 38 39 40 41 42 43 44 45 46 47 48 49 50
304
ASUS44 KLIX 231105
RWRLIX
NEW ORLEANS REGIONAL WEATHER ROUNDUP
NATIONAL WEATHER SERVICE NEW ORLEANS LA
600 AM CDT SAT AUG 23 2014

NOTE: "FAIR" INDICATES FEW OR NO CLOUDS BELOW 12,000 FEET WITH NO
      SIGNIFICANT WEATHER AND/OR OBSTRUCTIONS TO VISIBILITY.
      SKY/WX - SKY CONDITION AND SIGNIFICANT WEATHER.
      TMP - AIR TEMPERATURE.     DP    - DEWPOINT TEMPERATURE.
      RH  - RELATIVE HUMIDITY.   PRES  - PRESSURE.
      HI  - HEAT INDEX.          WCI   - WIND CHILL INDEX.

*  THESE STATIONS ARE NOT NWS OR FAA STATIONS AND ARE NOT UNDER
   NWS QUALITY CONTROL.

LAZ038-040-048-061>063-065>067-069-231200-
SOUTHEAST LOUISIANA

CITY           SKY/WX    TMP DP  RH WIND       PRES   REMARKS
N.O. AUDUBON     N/A     79  78  98 MISG        N/A
N.O. INTL ARPT PTCLDY    79  76  90 NW5       30.02R
N.O. LAKEFRONT CLEAR     84  78  82 NW14      30.02R HX  95
N.O. DOWNTOWN*   N/A     82  73  74 NW6       30.03R
SLIDELL        CLEAR     76  73  91 CALM      30.02R
BATON ROUGE    CLEAR     77  74  90 CALM      30.03R
BOOTHVILLE     CLEAR     82  78  88 NW6       30.02R
BELLE CHASSE   PTCLDY    77  73  87 CALM      30.02R
BOGALUSA*        N/A     76  73  88 CALM      30.04R
GALLIANO*      NOT AVBL
NEW ROADS*       N/A     74  73  98 CALM      30.03R
GONZALES*        N/A     77  77 100 CALM      30.02R
HAMMOND*       NOT AVBL
HOUMA*         CLEAR     75  72  91 CALM      30.02R FOG
PORT FOURCHON* MOSUNNY   84  75  74 CALM      30.03R

$$

MSZ070-080>082-231200-
SOUTHERN MISSISSIPPI

CITY           SKY/WX    TMP DP  RH WIND       PRES   REMARKS
MCCOMB         CLEAR     75  72  90 CALM      30.04R
GULFPORT       CLEAR     79  75  87 CALM      30.01R
BILOXI         CLEAR     80  75  84 CALM      30.01R
PASCAGOULA     FOG       75  74  96 CALM      30.01R VSB 3/4

$$

COASTAL OBSERVATIONS
LAKE AND NEARSHORE STATIONS

STATION/POSITION TIME  TEMP    WIND        PRES    WAVE
                       AIR SEA DIR/SP/G            HT/PER
                 (UTC) (F)     (DEG/KT/KT) (MB)    (FT/S)
PASCAGOULA       1000   82     320/  5/  6 1015.6
WAVELAND YACHT   1000   80     310/  5/  5 1015.6
GRAND ISLE       1000   85 90  320/  5/  6 1016.8
SOUTHWEST PASS   1000   84 88  300/  5/  6 1016.5
NEW CANAL        1000   84 85  300/  4/  6 1016.9
SHELL BEACH      1000   82 82  280/  7/  9 1016.1

OFFSHORE STATIONS

STATION/POSITION TIME  TEMP    WIND        PRES    WAVE
                       AIR SEA DIR/SP/G            HT/PER
                 (UTC) (F)     (DEG/KT/KT) (MB)    (FT/S)
64 S DAUPHIN ISL 1045   86 88  290/ 10/ 10 1016.1

$$




USA.gov is the U.S. government's official web portal to all federal, state and local government web resources and services.